This is the latest recevied weather packets stored in our database for station/object DO1SC. If no packets are shown the sender has not sent any weather packets the latest 10 day(s).
| Time | Temp. | Humidity | Pressure | Rain* | Wind** | Luminosity | Snow |
|---|---|---|---|---|---|---|---|
| 1777408535 | 6.67° C | 54% | 1024.1 hPa | - | - | 0 W/m² | - |
| 1777407926 | 6.67° C | 53% | 1024 hPa | - | - | 0 W/m² | - |
| 1777407317 | 6.67° C | 54% | 1023.9 hPa | - | - | 0 W/m² | - |
| 1777406729 | 7.22° C | 53% | 1023.9 hPa | - | - | 0 W/m² | - |
| 1777406121 | 7.22° C | 53% | 1023.8 hPa | - | - | 0 W/m² | - |
| 1777405532 | 7.22° C | 53% | 1023.8 hPa | - | - | 0 W/m² | - |
| 1777404923 | 7.78° C | 53% | 1023.6 hPa | - | - | 0 W/m² | - |
| 1777404335 | 7.78° C | 52% | 1023.5 hPa | - | - | 0 W/m² | - |
| 1777403727 | 8.33° C | 52% | 1023.5 hPa | - | - | 0 W/m² | - |
| 1777403121 | 8.33° C | 51% | 1023.4 hPa | - | - | 0 W/m² | - |
| 1777402530 | 8.89° C | 50% | 1023.2 hPa | - | - | 0 W/m² | - |
| 1777401921 | 8.89° C | 49% | 1023.1 hPa | - | - | 0 W/m² | - |
| 1777401333 | 9.44° C | 48% | 1023.1 hPa | - | - | 2 W/m² | - |
| 1777400727 | 9.44° C | 47% | 1022.9 hPa | - | - | 4 W/m² | - |
| 1777400136 | 10° C | 47% | 1022.9 hPa | - | - | 7 W/m² | - |
| 1777399527 | 10° C | 46% | 1022.7 hPa | - | - | 11 W/m² | - |
| 1777398921 | 10.56° C | 45% | 1022.6 hPa | - | - | 15 W/m² | - |
| 1777398332 | 11.11° C | 43% | 1022.6 hPa | - | - | 19 W/m² | - |
| 1777397724 | 11.11° C | 44% | 1022.5 hPa | - | - | 23 W/m² | - |
| 1777397132 | 11.11° C | 43% | 1022.4 hPa | - | - | 26 W/m² | - |
| 1777396523 | 11.67° C | 43% | 1022.4 hPa | - | - | 28 W/m² | - |
| 1777395935 | 12.22° C | 43% | 1022.3 hPa | - | - | 42 W/m² | - |
| 1777395327 | 12.22° C | 42% | 1022.2 hPa | - | - | 48 W/m² | - |
| 1777394718 | 12.78° C | 41% | 1022.1 hPa | - | - | 57 W/m² | - |
| 1777394131 | 12.78° C | 40% | 1022.2 hPa | - | - | 69 W/m² | - |
* Rain since midnight (hover to see other rain measurements)
** Current wind speed in m/s (hover to see current wind gust speed)